Volver al catálogo

COSMOS 2251 DEB

ActivoLEO
NORAD 38054·DEBRIS·🇷🇺 Russia

Lanzado Jun 16, 1993 desde Plesetsk Cosmodrome

Loading…

Próximos Pases (próximas 24 horas)

TLE

ActualizadoSource: Space-Track

Época: Sep 14, 2026, 22:21 UTC

1 38054U 93036BRL 26257.93188350  .00002316  00000-0  19465-2 0  9999
2 38054  73.9522 173.3326 0349332  97.4485  33.6908 13.63807795709437

Sigue COSMOS 2251 DEB en tiempo real con AllMySat

Download on the App Store